Location: Unspecified
(48.8656°N, 0.0000°E)
Time: 15:19:26
(UTC+00:00)

Vanguard 1 - Pass Details

Date: 17 June 2019
Orbit: 655 x 3829 km, 34.2° (Epoch: 20 August)

Event Time Altitude Azimuth Distance (km) Brightness Sun altitude
Rises 06:28:12 0° 251° (WSW) 5,626 13.3 21.8°
Reaches altitude 10° 06:33:11 10° 241° (WSW) 4,042 12.7 22.6°
Maximum altitude 06:40:48 26° 190° (S) 2,146 11.8 23.8°
Drops below altitude 10° 06:45:50 10° 134° (SE) 2,594 12.9 24.6°
Sets 06:48:17 0° 120° (ESE) 3,309 13.6 25.0°
